Погода в Томинском

Россия / Челябинская область     54°57′31″N   61°11′05″E
темп.,
°C
ветер,
м/с
пор.,
м/с
влажн.,
%
обл.,
%
осадки,
мм/ч
давл.,
гПа
погр.,
м
14 июня, пн
пн1423:00+17юв335299 0.0 102219
02:00+15ююз3354100 0.0 102219
05:00+16ю485292 0.0 1022141
08:00+19ююз585386 0.0 1023241
11:00+25ююз69377 0.0 1022873
14:00+27ююз673032 0.0 10212033
17:00+27ююз563590 0.0 10212243
20:00+23ююз3355100 0.0 102035
15 июня, вт
вт1523:00+18ююз46547 0.0 101972
02:00+17ююз48529 0.0 1019109
05:00+16юз4654100 0.0 101988
08:00+21юз41055100 0.0 1018256
11:00+26юз683999 0.0 1017803
14:00+29юз683599 0.0 10161484
17:00+23зсз4652100 0.0 1016109
20:00+25сз115836 0.0 101511
16 июня, ср
ср1623:00+20вюв2261100 0.0 101511
02:00+18в1171100 0.0 101511
05:00+17з11765 0.0 101511
08:00+22сз22605 0.0 1016227
11:00+27юз23445 0.0 1014879
14:00+30зюз36355 0.0 10132373
17:00+24сз9125667 0.1 1013539
20:00+21зюз467747 0.7 1012159
17 июня, чт
чт1723:00+18ююз3481100 1.1 101247
02:00+16юз3483100 0.0 101162
05:00+16ююз368385 0.0 1009103
08:00+21ююз51271100 0.1 1007349
11:00+26ююз6949100 0.1 1005704
14:00+28юз6939100 0.0 10032110
17:00+20зсз151785100 1.6 1003793
20:00+17ссз61390100 4.5 1004654
18 июня, пт
пт1823:00+13ссз8157810 4.7 1007755
02:00+11ссз714780 0.0 1010754
05:00+8ссз814735 0.0 1012716
08:00+11с913570 0.0 10141010
11:00+15с912440 0.0 10141427
14:00+17с811351 0.0 10142066
17:00+18с711335 0.0 10142452
20:00+16ссз3348100 0.0 101446